Theta_e
321 323 327 325 327 326 329 328 326 326 326 325 325 326 327 328 330 339 341 344 342 348 342 330 337 338 342 340 340 339 340 341 341 341 340 340 339 338 337 336 334 331 329 335 334 328 326 324 326
323 329 325 325 327 329 328 328 326 325 326 324 325 325 326 329 333 344 345 344 344 347 345 336 335 336 343 339 339 338 340 340 340 340 341 340 339 338 336 328 323 321 325 336 335 330 327 327 326
325 328 325 327 328 327 328 327 326 324 324 324 326 326 329 331 339 343 346 343 344 348 346 343 334 333 341 338 339 341 340 340 339 338 339 340 337 336 327 319 314 317 322 336 337 334 331 329 327
327 325 326 329 328 327 326 327 325 324 324 323 325 327 329 336 339 344 345 344 346 346 347 341 334 342 341 340 339 341 340 339 338 338 337 330 330 324 315 313 315 326 321 333 337 336 334 331 328
325 325 328 328 328 328 327 325 323 324 324 324 323 327 329 340 342 345 344 344 345 346 349 342 339 342 342 340 341 340 339 339 338 337 328 318 320 313 311 321 321 324 327 336 337 335 334 329 328
325 326 329 330 328 327 327 325 323 323 324 324 323 325 331 341 345 346 345 345 346 346 347 343 339 337 341 341 340 339 339 339 338 337 327 316 312 311 312 327 326 332 329 334 335 335 332 329 327
323 326 329 327 327 327 327 325 325 324 323 324 323 325 332 341 345 346 346 346 345 346 346 345 341 337 342 342 340 340 339 337 337 337 332 318 312 312 312 320 331 333 330 330 333 334 329 328 318
320 324 326 326 326 326 326 325 324 324 323 323 322 323 327 343 345 346 346 346 345 345 345 345 344 341 341 340 339 338 337 336 337 337 336 322 313 312 312 313 320 331 332 333 333 332 328 325 314
318 322 325 325 325 325 324 325 324 323 323 323 322 322 331 341 339 339 345 345 346 344 344 344 345 343 342 341 339 337 337 339 337 337 334 323 315 313 312 313 318 327 326 329 331 327 322 314 318
320 321 322 322 324 324 323 323 323 322 321 322 321 322 330 335 335 341 341 345 345 342 345 344 342 341 340 339 339 337 338 337 335 335 330 329 329 323 319 314 315 318 323 326 323 317 315 318 321
320 320 320 319 320 321 321 320 321 321 322 320 321 321 328 332 339 343 343 344 347 347 343 343 342 341 339 338 338 337 337 336 335 335 330 333 329 327 320 315 314 315 318 319 316 315 318 323 328
320 319 319 320 320 319 320 319 320 321 321 321 322 324 327 334 335 340 343 343 342 345 345 339 342 341 340 338 336 336 336 335 334 334 335 333 330 329 325 327 320 322 319 326 322 326 327 329 328
321 320 319 319 320 320 319 320 319 321 322 322 323 322 323 329 336 338 340 342 342 342 345 342 339 341 340 339 339 336 334 333 333 333 333 333 331 331 330 327 327 328 328 328 329 330 329 329 327
321 320 319 319 319 320 320 320 320 321 321 322 321 322 322 323 326 337 339 340 341 341 342 344 342 339 339 341 341 339 336 334 333 332 332 332 331 331 331 332 330 328 327 328 329 329 329 328 327
320 321 320 319 319 319 319 320 320 320 320 321 321 320 320 321 322 324 335 340 340 341 341 342 340 339 337 339 341 340 338 336 334 332 331 331 330 330 331 333 332 331 329 327 328 328 328 326 325
320 319 321 321 319 318 318 319 319 319 319 319 319 319 319 319 320 321 323 327 334 339 342 342 341 337 336 338 341 341 340 338 336 334 333 332 330 330 331 332 332 332 332 328 327 328 328 325 323
320 322 320 319 318 319 318 317 317 317 318 318 318 318 318 318 318 318 320 322 324 325 331 338 342 341 336 336 339 341 341 340 338 337 335 333 332 331 330 332 331 331 331 331 328 327 327 324 322
321 320 319 318 319 318 319 319 318 317 317 318 318 318 318 318 317 317 317 318 320 322 323 323 328 337 342 341 336 337 339 341 340 338 337 335 334 333 332 332 331 331 331 330 330 328 326 325 323
317 318 318 318 318 319 318 318 318 317 317 317 317 317 318 317 317 317 317 318 318 319 319 321 321 322 331 336 337 331 335 334 335 337 338 337 335 334 334 333 332 332 331 330 331 329 327 324 324
317 317 317 317 317 317 318 318 318 318 317 317 317 316 316 316 316 316 316 315 316 317 317 318 319 320 321 328 333 330 325 328 332 333 332 332 335 333 331 333 333 332 332 331 330 331 329 325 324
320 318 317 317 317 316 316 317 317 317 316 316 314 314 315 315 314 314 313 313 313 314 315 316 317 318 319 319 325 332 331 335 331 327 331 332 332 335 334 331 332 333 332 332 331 329 330 326 326
320 317 317 317 317 316 315 316 317 317 314 312 313 314 314 314 313 313 313 313 312 312 313 315 315 316 317 317 319 324 331 333 332 331 329 330 331 329 330 333 333 332 332 332 331 330 328 326 326
320 317 318 317 318 318 317 318 318 314 314 314 315 315 315 314 314 314 314 314 313 311 312 312 312 313 314 315 316 319 325 329 331 331 332 331 330 325 325 327 328 330 331 331 332 331 329 328 325
313 317 317 317 319 322 319 318 315 314 315 315 315 315 315 315 315 314 315 315 316 312 312 311 311 311 311 312 313 314 318 326 329 329 330 331 332 331 329 323 321 323 327 330 329 327 329 329 326
314 318 322 323 321 321 316 316 316 312 314 314 315 315 316 317 317 316 316 315 315 314 313 313 312 312 311 311 311 312 313 318 325 328 329 329 330 329 331 327 323 323 324 331 330 328 327 328 328
316 317 325 323 322 319 312 317 316 312 311 313 314 315 316 317 317 317 317 316 315 315 315 314 313 313 312 311 311 311 312 313 316 322 326 328 328 329 328 325 322 320 322 326 331 330 329 329 327
315 317 313 314 313 316 314 313 311 309 311 313 313 313 316 317 317 316 316 316 315 315 314 314 314 314 314 313 312 312 312 311 311 312 315 321 323 326 326 324 321 318 322 324 324 328 327 326 325
315 312 316 318 317 317 314 314 315 310 312 312 313 314 315 316 316 315 314 314 314 313 313 313 313 313 313 313 313 312 311 311 311 311 311 312 314 315 313 312 313 313 314 318 324 324 323 321 321
313 315 313 313 314 317 313 313 314 312 313 314 313 312 314 315 315 314 313 313 312 311 312 311 312 312 312 311 311 311 311 311 311 311 311 310 310 311 311 311 311 311 312 313 316 320 319 319 319
312 315 315 318 317 314 316 312 313 313 313 311 312 312 314 315 312 313 313 311 310 309 309 310 311 310 311 311 311 311 311 311 311 311 310 310 310 310 310 311 311 311 312 313 315 316 316 317 317
Wind_Speed
16 9 6 5 6 6 13 14 3 6 4 3 2 5 3 8 2 1 4 6 13 18 18 20 20 19 16 15 13 11 9 7 6 7 6 5 4 3 3 4 3 2 4 7 8 8 8 8 8
13 10 7 11 8 12 12 15 8 8 5 2 4 6 6 2 3 3 6 8 16 18 17 18 19 20 16 14 13 11 8 6 6 6 6 5 4 3 3 2 2 5 9 8 8 7 8 7 8
15 12 11 5 12 15 13 11 11 7 3 2 3 4 3 1 3 3 2 13 20 18 17 18 19 20 19 16 14 11 9 8 7 6 7 7 6 5 2 1 2 6 11 10 9 6 4 6 8
12 10 10 12 17 20 20 8 5 8 6 3 1 5 4 4 1 2 10 17 19 17 16 17 19 20 18 15 14 12 10 9 8 7 7 6 6 2 2 4 4 7 13 12 10 6 1 4 6
19 16 11 16 21 19 16 11 6 11 11 7 1 5 3 4 5 8 12 17 17 17 18 18 20 19 17 16 15 13 11 9 8 8 5 5 6 4 5 4 7 10 14 11 9 6 3 1 3
14 19 12 19 23 23 19 16 9 8 11 6 5 5 5 6 8 10 13 16 15 16 15 18 18 17 15 13 13 12 11 9 7 7 3 6 7 6 7 7 8 11 14 12 8 7 4 2 1
20 14 22 22 23 21 23 19 19 18 14 12 4 6 10 8 9 10 13 13 15 14 13 15 16 17 16 14 13 13 12 8 8 8 4 4 7 7 9 9 12 12 11 12 10 8 6 4 3
24 15 25 22 20 22 20 21 23 20 17 10 4 6 3 9 8 12 12 13 13 12 13 14 15 16 16 15 15 14 12 12 9 8 6 6 6 7 9 9 12 15 11 13 11 9 7 4 5
17 15 19 26 25 21 14 14 18 17 23 13 13 13 6 8 8 9 15 13 13 18 13 14 14 14 12 11 14 19 14 12 12 11 9 7 5 7 8 10 10 11 13 11 11 8 6 5 5
14 16 25 19 21 15 14 12 17 12 17 16 16 8 4 7 6 9 14 16 16 18 16 14 14 14 15 13 13 12 13 14 11 13 12 7 8 6 7 9 11 11 12 12 11 9 7 6 3
15 18 19 20 4 4 12 13 19 17 15 21 20 17 8 10 9 11 12 13 14 15 21 19 15 15 15 14 13 13 12 12 12 13 8 10 11 13 12 11 12 12 12 11 11 10 9 7 7
14 26 22 11 4 3 11 16 20 16 14 16 10 7 8 9 11 12 13 12 12 14 16 23 18 16 15 13 13 12 13 12 12 13 13 12 12 12 11 10 11 10 11 8 8 7 7 9 9
20 14 21 11 6 11 12 17 17 19 7 5 7 4 7 7 9 11 13 12 12 12 14 19 19 18 16 15 12 13 13 14 13 14 15 15 14 12 11 12 12 12 11 12 11 11 11 10 9
13 21 9 20 12 8 8 13 13 17 15 13 12 11 9 7 6 10 13 15 16 15 16 17 20 21 21 15 14 12 12 12 14 14 15 18 16 15 15 13 13 13 13 13 13 13 12 11 11
14 13 15 12 19 7 11 14 20 20 14 20 19 18 15 13 11 11 12 15 16 15 14 15 16 19 19 20 18 15 13 13 14 15 17 18 19 18 16 16 16 17 14 14 14 14 13 13 12
17 12 13 20 12 15 11 21 18 24 21 21 19 18 17 17 16 14 13 13 15 16 16 15 16 19 19 20 18 18 16 15 15 15 15 18 19 20 19 18 17 16 17 16 16 15 16 15 15
14 11 21 16 27 11 17 13 13 8 17 26 27 24 22 21 20 19 18 16 15 15 16 18 18 19 20 21 21 19 17 18 16 16 17 17 20 21 21 20 19 19 21 20 18 18 18 17 17
20 23 20 20 12 24 19 17 6 6 10 12 15 17 18 20 22 21 21 20 19 19 18 17 18 20 20 19 23 24 25 20 19 19 19 19 21 22 23 22 21 21 22 24 21 21 21 19 19
17 17 21 15 8 13 23 18 17 13 13 14 16 17 17 17 16 16 17 18 18 19 21 21 21 21 20 20 27 26 30 28 27 26 21 22 23 23 25 26 23 24 25 28 28 24 24 24 20
13 19 21 8 8 8 13 20 17 13 18 20 19 20 19 18 17 15 16 16 18 19 20 23 23 22 23 23 25 30 27 30 33 34 34 33 30 30 30 28 29 28 29 27 28 29 28 27 28
21 14 16 11 12 9 6 13 14 15 18 16 11 15 15 12 13 14 14 14 18 20 20 20 21 23 25 25 24 26 23 20 27 33 37 40 38 35 35 34 34 32 31 32 32 31 34 34 33
15 15 12 12 14 6 13 3 16 15 11 10 10 8 6 5 5 3 2 2 9 15 22 27 27 26 27 28 28 26 26 27 27 28 32 35 38 38 37 38 38 35 34 35 36 35 36 36 37
4 4 11 13 15 6 12 5 10 10 11 11 10 8 6 5 4 4 4 4 3 0 5 12 20 26 28 28 30 25 27 26 24 24 24 27 29 33 34 36 36 38 37 38 39 38 40 42 39
7 12 8 2 3 5 11 10 10 11 12 12 10 9 7 6 5 5 5 5 5 5 4 3 1 7 16 24 28 28 28 22 23 22 23 22 25 28 33 33 34 33 38 38 40 41 42 44 42
10 10 5 4 4 3 6 6 4 8 12 11 11 10 6 5 5 4 3 2 3 3 4 3 3 3 3 7 14 21 25 24 22 21 22 21 24 28 27 29 30 30 31 35 38 39 42 45 44
9 2 2 5 9 9 5 7 4 11 10 11 8 6 5 4 3 3 3 3 3 5 4 4 3 4 4 5 6 8 15 21 24 20 20 19 20 20 24 27 27 26 26 28 32 35 37 41 42
4 3 1 2 3 4 8 4 6 9 11 11 9 7 5 3 2 3 4 4 3 4 5 6 6 7 8 8 9 8 7 10 12 15 18 18 20 21 23 23 24 23 23 24 25 30 34 38 38
1 6 2 2 5 5 6 6 5 15 15 11 9 9 6 3 1 3 4 4 3 3 5 5 6 7 8 9 11 12 14 14 14 14 14 16 15 17 21 21 24 25 24 23 23 25 28 30 33
2 3 2 3 3 3 5 3 9 18 15 12 8 5 4 2 1 3 3 2 3 3 4 5 6 7 8 7 7 7 8 10 12 13 14 15 16 18 19 21 23 24 25 23 22 22 24 26 28
4 4 6 3 3 1 3 4 9 16 15 12 6 4 5 3 1 1 1 2 3 3 3 3 4 5 6 6 5 3 2 3 5 7 9 11 13 16 18 20 22 23 22 21 19 20 22 23 25
Wind_Direction
225 233 249 244 234 229 241 235 203 228 209 169 18 241 240 346 230 272 136 159 158 157 167 172 167 164 167 166 165 166 165 170 185 195 195 207 222 239 250 257 259 211 149 146 117 97 97 83 55
210 226 221 243 238 230 227 233 195 236 87 299 237 223 251 204 48 72 121 175 156 155 166 171 168 166 168 169 173 173 168 163 171 197 180 191 213 231 237 274 234 172 170 157 154 113 92 69 49
199 206 223 227 227 234 238 202 218 179 153 270 217 235 180 135 79 100 172 153 154 157 158 177 168 166 171 176 175 169 165 169 187 196 197 193 193 201 257 234 180 160 167 158 175 145 98 59 45
192 204 246 242 227 228 246 244 236 182 190 196 223 220 162 68 97 120 143 148 153 156 160 177 166 163 171 168 171 170 174 181 174 182 200 202 189 181 158 148 140 132 163 157 178 166 137 35 39
194 218 224 222 233 238 225 236 210 220 191 186 251 144 128 90 99 123 139 151 154 153 186 178 167 168 171 171 173 180 172 183 188 177 173 142 146 150 148 134 132 151 155 161 171 177 186 8 38
192 224 218 227 222 234 235 230 189 214 185 195 239 231 109 114 119 136 143 150 156 158 184 176 171 173 173 175 182 181 188 195 182 179 158 152 148 149 158 135 137 143 165 172 175 192 207 244 307
223 212 226 235 230 225 229 197 223 226 222 213 220 254 119 122 136 140 149 156 153 167 171 170 174 175 175 179 184 194 205 204 199 191 207 180 157 159 170 158 148 154 174 186 190 202 216 227 211
221 242 233 231 237 236 221 207 227 229 224 211 221 227 189 130 143 148 152 158 160 167 173 161 172 175 181 185 188 199 203 202 203 215 216 188 177 170 179 186 174 175 181 196 203 213 220 226 188
226 239 231 228 230 239 230 204 224 235 238 233 217 246 99 128 174 166 154 167 180 164 177 179 174 183 180 196 218 211 203 204 211 220 229 185 192 186 182 183 187 188 204 197 212 224 226 200 184
214 222 227 233 235 237 239 247 215 211 227 209 217 196 177 167 179 179 174 176 185 179 175 186 183 187 186 189 227 197 206 211 213 229 225 190 184 189 186 201 198 202 202 208 219 220 201 190 198
216 231 230 243 315 186 190 217 234 208 230 225 219 212 201 190 192 188 188 193 196 193 178 179 191 192 191 197 196 195 201 203 205 214 224 188 194 213 203 214 206 211 209 215 219 212 200 170 197
226 225 247 224 210 235 211 210 226 220 236 220 214 163 198 205 207 202 200 196 207 201 204 195 185 194 197 201 195 196 199 203 201 208 206 199 200 212 195 207 207 206 214 201 217 221 202 209 204
218 229 225 261 178 219 208 219 220 221 195 188 167 192 203 207 214 211 206 207 206 212 213 210 193 203 198 202 206 201 204 206 206 206 208 206 208 208 203 205 205 206 212 204 208 207 215 211 212
204 228 203 224 200 198 213 221 220 231 218 210 223 224 222 222 217 218 217 214 212 207 212 217 212 214 189 209 211 210 210 213 208 212 212 208 210 207 206 213 213 215 212 209 210 211 211 214 214
219 209 231 222 212 206 231 241 223 229 226 233 232 235 234 238 235 224 223 227 226 225 216 216 219 224 221 201 219 216 217 213 218 217 218 216 212 214 211 211 232 211 223 216 214 214 214 215 215
203 237 216 217 205 221 199 250 221 220 232 237 231 229 232 235 234 233 226 225 221 224 224 218 219 225 226 224 212 222 221 223 220 221 221 225 221 219 220 218 216 242 216 222 219 213 217 215 222
197 200 224 208 208 189 200 251 219 181 221 239 237 235 239 239 238 239 237 234 230 225 220 218 222 229 233 232 227 220 227 228 227 225 227 228 226 226 228 225 220 217 234 217 220 220 222 221 225
190 217 209 215 182 213 208 235 186 228 227 227 224 231 233 238 242 242 242 240 238 234 230 228 225 224 229 237 240 235 230 227 232 231 231 229 231 230 231 229 228 222 222 232 220 225 224 220 228
211 211 232 190 157 207 223 228 232 230 223 229 241 244 237 240 245 242 239 238 238 236 233 232 231 229 226 227 248 244 243 247 242 238 233 235 235 237 238 239 230 225 222 242 228 224 226 225 217
243 225 211 177 183 209 218 229 234 226 233 243 250 254 252 250 246 246 253 247 241 240 240 235 232 232 231 228 243 256 252 248 247 252 250 247 249 251 254 246 241 234 235 226 243 221 228 233 225
237 192 205 190 186 222 274 239 230 224 233 242 252 255 257 258 253 253 256 255 246 239 236 236 238 235 235 232 230 252 253 251 256 253 254 254 250 246 251 253 247 239 235 237 236 240 230 236 235
201 203 208 168 182 204 195 262 196 193 214 216 208 204 193 196 197 211 244 261 246 236 235 234 229 232 237 235 230 230 238 239 246 255 257 257 257 254 251 251 252 250 244 239 243 238 245 240 239
184 204 181 177 211 159 187 243 135 174 188 183 169 161 156 143 132 113 91 78 63 54 252 250 249 246 242 236 235 232 234 241 246 249 257 257 265 264 255 255 253 255 252 251 250 242 237 246 243
145 126 114 159 187 228 182 214 168 182 184 165 157 155 136 122 115 98 82 73 60 61 62 55 346 255 247 242 242 240 234 239 245 247 249 252 256 260 264 261 262 255 253 253 258 260 248 247 247
126 155 146 160 189 223 141 193 15 131 147 162 160 145 123 113 105 93 78 63 42 35 40 37 36 348 299 261 250 245 243 239 241 245 250 256 255 258 260 266 269 268 260 251 254 257 258 258 252
133 170 270 167 190 167 152 216 135 141 172 138 145 140 130 113 89 62 35 25 5 357 334 316 307 296 274 262 258 248 242 242 242 247 248 252 259 262 271 271 273 274 271 262 257 255 256 252 259
133 173 2 309 21 173 173 158 145 169 167 164 165 168 152 125 64 18 9 8 358 338 324 308 298 284 275 270 257 253 264 258 254 249 247 250 250 250 251 265 272 272 270 269 267 264 260 256 257
152 133 161 232 185 201 186 183 147 167 167 171 171 179 164 156 28 354 352 352 348 330 307 310 300 301 298 284 269 256 249 250 251 252 250 249 253 256 264 269 269 272 273 269 265 264 264 261 260
143 185 270 315 326 289 152 150 124 162 161 159 152 163 169 174 338 339 345 7 357 340 327 328 319 311 304 309 303 282 269 263 260 261 262 264 269 272 275 277 279 279 277 274 268 266 265 265 263
311 249 213 256 175 21 318 86 160 153 136 120 124 156 176 179 276 325 49 51 30 8 353 341 345 335 321 297 298 297 267 247 247 256 260 262 265 269 272 275 278 279 283 282 275 268 268 268 262